[[{"header":{"parameterUnit":"m.s-1","parameterCategory":2,"la1":30.2991,"la2":30.254,"lo1":-89.0895,"lo2":-89.0444,"dx":0.0017,"dy":0.0017,"nx":28,"ny":28,"refTime":"2022-12-13T15:00:00:Z","depth":"0","parameterNumber":2,"parameterNumberName":"U-component_of_CURRENTS"},"data":[0,0,0,0,0,0,0,0,0,0,0,0,0,0,0,0,0,0,0,0,0,0,0,0,0,0,0,0,0,0,0,0,0,0,0,0,0,0,0,0,0,0,0,0,0,0,0,0,0,0,0,0,0,0,0,0,0,0,0.2646,0.2646,0,0.266,0.266,0.266,0.2653,0.2653,0.2652,0.2652,0.2649,0.2649,0.2649,0,0,0,0,0,0,0,0,0,0,0,0,0,0.2669,0.2668,0.2646,0.2646,0.2647,0.266,0.266,0.266,0.2653,0.2653,0.2652,0.2652,0.2649,0.2649,0.2649,0,0,0,0,0,0,0,0,0,0,0,0,0,0.2667,0.2668,0.2646,0.2646,0.2646,0.266,0.266,0.266,0.2653,0.2653,0.2652,0.2652,0.2649,0.2649,0.2649,0.2657,0,0,0.265,0.265,0,0,0,0,0,0,0,0,0.2667,0.2666,0.2646,0.2646,0.2646,0.2656,0.2667,0.2659,0.2653,0.2649,0.2652,0.2652,0.2651,0.2651,0.2652,0.2656,0.2656,0.265,0.265,0.265,0.265,0,0,0,0,0,0,0,0.2667,0.2666,0.265,0.2646,0.2646,0.2665,0.2663,0.2666,0.265,0.2649,0.2649,0.2653,0.2651,0.2652,0.2652,0.2656,0.265,0.265,0.265,0.265,0.27,0.2701,0,0,0,0,0,0,0.2666,0.2665,0.2649,0.265,0.2658,0.2664,0.2663,0.2652,0.265,0.265,0.2653,0.2653,0.2652,0.2652,0.2652,0.2688,0.265,0.265,0.265,0.2699,0.27,0.2702,0,0,0,0,0,0,0.2666,0.2664,0.2649,0.2661,0.266,0.2664,0.2652,0.2652,0.2659,0.2654,0.2653,0.2661,0.2652,0.2652,0.2666,0.2686,0.265,0.265,0.2697,0.2699,0.2701,0.2742,0,0,0,0,0,0,0.2666,0.2663,0.2658,0.266,0.266,0.2665,0.2652,0.2653,0.2662,0.2662,0.266,0.2659,0.2651,0.2666,0.2666,0.2686,0.265,0.2696,0.2698,0.27,0.2739,0.2745,0.275,0,0,0,0,0,0.2667,0.2664,0.2657,0.2655,0.265,0.2666,0.2668,0.2669,0.2663,0.2672,0.2673,0.2659,0.2681,0.2667,0.2667,0.2687,0.2695,0.2698,0.27,0.2737,0.2744,0.275,0,0,0,0,0,0,0.2673,0.2663,0.2655,0.2648,0.2659,0.2666,0.2675,0.2675,0.2682,0.2682,0.2673,0.2672,0.2696,0.2687,0.2672,0.271,0.2687,0.269,0.2715,0.2721,0.2727,0.2733,0.265,0,0,0,0,0,0.267,0.2663,0.2664,0.2662,0.2667,0.2672,0.2679,0.2681,0.2688,0.2691,0.2689,0.2693,0.2707,0.271,0.2718,0.2735,0.2747,0.2749,0.2755,0.276,0.2766,0.2816,0.2827,0.2711,0.2711,0.2711,0,0,0.2674,0.2668,0.2664,0.2663,0.267,0.2683,0.2675,0.2691,0.2704,0.269,0.2705,0.2713,0.2718,0.2741,0.275,0.2735,0.2799,0.2763,0.2767,0.2771,0.282,0.2832,0.2842,0.2713,0.2712,0.2712,0,0,0.2687,0.2672,0.2674,0.2684,0.2697,0.27,0.2706,0.2716,0.2721,0.274,0.2739,0.2761,0.2769,0.2783,0.279,0.2831,0.283,0.2832,0.286,0.2909,0.2919,0.2928,0.2955,0.2966,0.283,0.2831,0.2831,0,0.2693,0.2688,0.2683,0.2695,0.2709,0.2708,0.2727,0.2733,0.2747,0.2767,0.2751,0.2798,0.2793,0.2839,0.2847,0.2844,0.2865,0.2833,0.2917,0.2926,0.2934,0.296,0.2971,0.2833,0.2833,0.2832,0.2832,0,0.2711,0.2711,0.2719,0.2726,0.2742,0.276,0.277,0.2787,0.2792,0.2806,0.2854,0.2855,0.2888,0.2888,0.2874,0.2936,0.2928,0.2921,0.2899,0.2949,0.2972,0.2983,0.2836,0.2835,0.2835,0.2834,0,0,0.2706,0.2727,0.2726,0.2736,0.2761,0.2772,0.2806,0.284,0.2868,0.2885,0.2929,0.2952,0.2964,0.2973,0.2969,0.2996,0.3061,0.298,0.2982,0.3005,0.3161,0.3145,0.3155,0.3073,0.3075,0.3077,0.3151,0,0.272,0.2745,0.2755,0.2781,0.2796,0.2818,0.2847,0.2881,0.291,0.2948,0.2975,0.3007,0.2993,0.3006,0.3042,0.306,0.3094,0.304,0.3111,0.3112,0.3092,0.3169,0.3086,0.3145,0.3162,0.3164,0.3166,0,0.2724,0.2742,0.2771,0.2807,0.2817,0.2834,0.289,0.2918,0.2981,0.3004,0.3062,0.3079,0.3133,0.3098,0.3185,0.3154,0.3164,0.3169,0.3173,0.3152,0.3119,0.31,0.3165,0.3117,0.3183,0.3182,0.318,0,0.2707,0.2746,0.2768,0.278,0.2824,0.2848,0.2876,0.294,0.298,0.3042,0.3087,0.3152,0.3195,0.3229,0.3257,0.3226,0.3341,0.3301,0.3299,0.3297,0.3237,0.3226,0.3262,0.3364,0.3364,0.3363,0.3363,0,0.2702,0.2714,0.2759,0.2765,0.2799,0.284,0.2887,0.2926,0.3003,0.3062,0.3115,0.3178,0.3233,0.3304,0.33,0.3355,0.3391,0.3326,0.3329,0.3247,0.3237,0.3199,0.3155,0.3366,0.3366,0.3365,0.3364,0,0.2662,0.2693,0.2715,0.2766,0.2785,0.2806,0.2882,0.2917,0.3001,0.3084,0.3108,0.3227,0.3321,0.3373,0.3437,0.3425,0.3368,0.3455,0.3347,0.3336,0.3261,0.3221,0.3092,0.3005,0.3459,0.346,0.346,0,0.2639,0.2649,0.27,0.2712,0.2729,0.2775,0.2804,0.2892,0.2938,0.3111,0.3144,0.3284,0.3356,0.3466,0.3471,0.3492,0.3383,0.342,0.3341,0.3271,0.323,0.3053,0.2976,0.3273,0.3272,0.3271,0.327,0,0.2598,0.2616,0.2634,0.2664,0.2689,0.272,0.2775,0.2812,0.2931,0.3015,0.3128,0.3208,0.336,0.3369,0.3437,0.3428,0.3267,0.3397,0.3362,0.3128,0.29,0.2814,0.3197,0.3261,0.3261,0.3262,0.3263,0.3263,0.2562,0.2562,0.2589,0.2604,0.2629,0.2641,0.2638,0.2711,0.2774,0.2872,0.3024,0.3104,0.3259,0.3341,0.3317,0.3274,0.3195,0.3197,0.3168,0.3004,0.2877,0.3235,0.3279,0.328,0.3281,0.3282,0.3282,0,0.2513,0.2517,0.253,0.2534,0.2518,0.2563,0.2592,0.257,0.2592,0.274,0.282,0.2973,0.303,0.3124,0.3183,0.3086,0.2893,0.3004,0.2752,0.2699,0.3077,0.303,0.2976,0.2976,0.2977,0.2977,0.2977,0.2977,0.2487,0.2469,0.2467,0.2417,0.2414,0.2355,0.2345,0.2334,0.2396,0.2456,0.2546,0.2659,0.292,0.305,0.3021,0.2941,0.2717,0.2573,0.2546,0.2858,0.2873,0.2887,0.2835,0.2742,0.2741,0.2061,0.2057,0.2053]},{"header":{"parameterUnit":"m.s-1","parameterCategory":2,"la1":30.2991,"la2":30.254,"lo1":-89.0895,"lo2":-89.0444,"dx":0.0017,"dy":0.0017,"nx":28,"ny":28,"refTime":"2022-12-13T15:00:00:Z","depth":"0","parameterNumber":3,"parameterNumberName":"V-component_of_CURRENTS"},"data":[0,0,0,0,0,0,0,0,0,0,0,0,0,0,0,0,0,0,0,0,0,0,0,0,0,0,0,0,0,0,0,0,0,0,0,0,0,0,0,0,0,0,0,0,0,0,0,0,0,0,0,0,0,0,0,0,0,0,0.0275,0.0275,0,0.0237,0.0236,0.0235,0.0201,0.0201,0.0201,0.02,0.0125,0.0123,0.0121,0,0,0,0,0,0,0,0,0,0,0,0,0,0.0273,0.0274,0.0275,0.0275,0.0275,0.0237,0.0236,0.0235,0.0201,0.0201,0.02,0.02,0.0125,0.0123,0.0121,0,0,0,0,0,0,0,0,0,0,0,0,0,0.0257,0.0274,0.0276,0.0255,0.0252,0.0237,0.0236,0.0235,0.0201,0.0201,0.02,0.02,0.0126,0.0123,0.0121,0.0111,0,0,0.0113,0.0111,0,0,0,0,0,0,0,0,0.0258,0.0257,0.0258,0.0256,0.0254,0.0225,0.0208,0.0192,0.0201,0.0219,0.02,0.02,0.0156,0.0151,0.0142,0.0108,0.0104,0.0112,0.0111,0.011,0.0109,0,0,0,0,0,0,0,0.0259,0.0258,0.0258,0.0258,0.0255,0.0231,0.0229,0.0204,0.0188,0.0217,0.0215,0.0214,0.0155,0.0145,0.014,0.0103,0.0112,0.011,0.0108,0.0107,0.0057,0.0057,0,0,0,0,0,0,0.0271,0.0259,0.0259,0.0257,0.0257,0.0232,0.0229,0.0233,0.0189,0.0183,0.0214,0.0212,0.015,0.0144,0.0138,0.0139,0.011,0.0107,0.0105,0.0057,0.0057,0.0057,0,0,0,0,0,0,0.0271,0.0271,0.0261,0.0258,0.0256,0.0233,0.0237,0.0232,0.0226,0.0187,0.018,0.0214,0.0149,0.0141,0.0124,0.0135,0.0106,0.0103,0.0056,0.0057,0.0057,0.0132,0,0,0,0,0,0,0.0271,0.0272,0.0276,0.026,0.0256,0.0263,0.0238,0.0232,0.0227,0.0224,0.0184,0.0177,0.0149,0.0129,0.0122,0.0131,0.0101,0.0056,0.0057,0.0057,0.0129,0.0135,0.014,0,0,0,0,0,0.0271,0.0288,0.0277,0.0277,0.0265,0.0264,0.026,0.024,0.0227,0.0232,0.0204,0.0178,0.0127,0.0127,0.0119,0.0127,0.0056,0.0056,0.0057,0.0127,0.0134,0.014,0,0,0,0,0,0,0.0292,0.0286,0.0273,0.0287,0.0278,0.0259,0.0261,0.0247,0.0228,0.0224,0.0184,0.0175,0.0163,0.0134,0.0136,0.0113,0.0086,0.0085,0.0142,0.0148,0.0153,0.0173,0.0099,0,0,0,0,0,0.0299,0.0307,0.0295,0.0305,0.0303,0.0281,0.0277,0.0266,0.0249,0.024,0.0213,0.0182,0.0158,0.0146,0.0119,0.011,0.008,0.0108,0.0113,0.0118,0.0128,0.0091,0.0094,0.0059,0.0059,0.0059,0,0,0.031,0.0307,0.0311,0.0309,0.0299,0.031,0.0278,0.028,0.0287,0.0234,0.0234,0.02,0.0159,0.0149,0.0141,0.0128,0.0112,0.0119,0.0124,0.0131,0.0092,0.0095,0.0098,0.006,0.006,0.006,0,0,0.0343,0.0333,0.0353,0.0351,0.0344,0.0332,0.0337,0.0321,0.0311,0.0305,0.0269,0.0245,0.0209,0.0185,0.0168,0.0185,0.0142,0.0174,0.0218,0.0183,0.0185,0.0187,0.0158,0.0157,0.0177,0.0177,0.0178,0,0.0354,0.0378,0.0359,0.0378,0.0382,0.0348,0.0372,0.036,0.034,0.0338,0.0315,0.0266,0.0228,0.0218,0.0222,0.0199,0.0173,0.02,0.0191,0.0192,0.0193,0.0162,0.016,0.0181,0.0181,0.018,0.018,0,0.0405,0.042,0.0433,0.0445,0.0447,0.0461,0.0445,0.0443,0.0422,0.0406,0.039,0.0338,0.031,0.0291,0.0261,0.0253,0.0231,0.0202,0.0179,0.0201,0.0167,0.0164,0.0186,0.0185,0.0184,0.0183,0,0,0.0436,0.0464,0.0467,0.0488,0.0483,0.0497,0.0506,0.0508,0.0524,0.0484,0.0496,0.0441,0.0409,0.0386,0.0342,0.0308,0.0286,0.0264,0.0261,0.0244,0.0213,0.0205,0.02,0.0257,0.0256,0.0256,0.0188,0,0.0479,0.0536,0.0533,0.0582,0.061,0.0586,0.0605,0.06,0.058,0.0581,0.052,0.0508,0.0446,0.0434,0.0392,0.0317,0.0279,0.0307,0.0186,0.0183,0.018,0.0197,0.0216,0.0158,0.0185,0.0184,0.0183,0,0.0529,0.0561,0.0623,0.0663,0.0673,0.0697,0.0719,0.0732,0.0714,0.0699,0.0666,0.0613,0.0565,0.0504,0.0389,0.041,0.032,0.0253,0.0248,0.0214,0.0169,0.0138,0.015,0.0039,0.0177,0.0178,0.0178,0,0.0571,0.0622,0.0678,0.069,0.0729,0.0754,0.0772,0.0771,0.08,0.0773,0.0789,0.0704,0.0683,0.0557,0.0417,0.04,0.0288,0.0242,0.015,0.0148,0.0128,0.0125,0.0026,0.0155,0.0155,0.0155,0.0155,0,0.0619,0.0661,0.0708,0.074,0.0814,0.0816,0.0885,0.0884,0.0905,0.0964,0.0861,0.0884,0.0696,0.0607,0.0454,0.0306,0.0314,0.0166,0.0133,0.0154,0.0155,0.0026,-0.0064,0.0152,0.0153,0.0153,0.0154,0,0.0658,0.0685,0.0756,0.0814,0.084,0.0894,0.0972,0.1022,0.1028,0.1101,0.11,0.1024,0.0909,0.0716,0.0518,0.0377,0.0139,0.0154,0.0198,0.0171,-0.0024,-0.0111,-0.0257,-0.0328,0.0038,0.0038,0.0037,0,0.0684,0.0727,0.0815,0.0869,0.0901,0.0982,0.1046,0.1081,0.1145,0.1203,0.125,0.1159,0.1123,0.0828,0.0543,0.0274,0.0131,0.0115,0.0077,-0.0023,-0.0145,-0.0191,-0.0244,0.0075,0.0075,0.0075,0.0075,0,0.0736,0.0768,0.083,0.094,0.1021,0.1116,0.1212,0.1285,0.1351,0.142,0.1488,0.1462,0.1189,0.0932,0.0561,0.0359,0.0031,0.0105,-0.0015,-0.0133,-0.0175,-0.0262,0.0109,0.0074,0.0075,0.0075,0.0075,0.0075,0.0776,0.0829,0.0917,0.1019,0.1118,0.1243,0.1332,0.1447,0.1577,0.1698,0.1663,0.167,0.1309,0.0802,0.0514,0.0039,0.0011,-0.0096,-0.0196,-0.0233,-0.0295,0.0083,0.0022,0.0022,0.0022,0.0021,0.0021,0,0.0824,0.089,0.099,0.112,0.1236,0.1278,0.1441,0.1544,0.1712,0.1827,0.1882,0.1733,0.1271,0.0802,0.0154,-0.018,-0.0311,-0.0364,-0.043,-0.0475,-0.0146,-0.0135,-0.0212,-0.0212,-0.0211,-0.0211,-0.0211,-0.0211,0.0855,0.0953,0.1003,0.1196,0.1293,0.1451,0.1547,0.1707,0.1826,0.1978,0.2013,0.1999,0.1702,0.0522,-0.0257,-0.0467,-0.0677,-0.0727,-0.0852,-0.0627,-0.0609,-0.0591,-0.0599,-0.0772,-0.0773,-0.111,-0.1113,-0.1116]}],[{"header":{"parameterUnit":"m.s-1","parameterCategory":2,"la1":30.2991,"la2":30.254,"lo1":-89.0895,"lo2":-89.0444,"dx":0.0017,"dy":0.0017,"nx":28,"ny":28,"refTime":"2022-12-13T15:00:00:Z","depth":"2","parameterNumber":2,"parameterNumberName":"U-component_of_CURRENTS"},"data":[0,0,0,0,0,0,0,0,0,0,0,0,0,0,0,0,0,0,0,0,0,0,0,0,0,0,0,0,0,0,0,0,0,0,0,0,0,0,0,0,0,0,0,0,0,0,0,0,0,0,0,0,0,0,0,0,0,0,0.2403,0.2403,0,0.2427,0.2427,0.2427,0.2433,0.2433,0.2433,0.2433,0.2446,0.2446,0.2446,0,0,0,0,0,0,0,0,0,0,0,0,0,0.2364,0.2364,0.2403,0.2403,0.2404,0.2427,0.2427,0.2427,0.2433,0.2433,0.2433,0.2433,0.2446,0.2446,0.2446,0,0,0,0,0,0,0,0,0,0,0,0,0,0.2382,0.2365,0.2403,0.2411,0.2412,0.2427,0.2427,0.2427,0.2433,0.2433,0.2433,0.2433,0.2446,0.2446,0.2447,0.2449,0,0,0.2448,0.2448,0,0,0,0,0,0,0,0,0.2381,0.2383,0.2409,0.241,0.2412,0.2429,0.2418,0.2435,0.2433,0.2423,0.2433,0.2433,0.244,0.2441,0.2443,0.2449,0.245,0.2448,0.2448,0.2449,0.2449,0,0,0,0,0,0,0,0.2379,0.2382,0.241,0.241,0.2411,0.2414,0.2416,0.2421,0.2429,0.2424,0.2425,0.243,0.2441,0.2442,0.2443,0.245,0.2448,0.2449,0.2449,0.2449,0.2507,0.2508,0,0,0,0,0,0,0.238,0.2381,0.241,0.2411,0.2398,0.2415,0.2417,0.2421,0.2429,0.2431,0.243,0.2431,0.2442,0.2443,0.2444,0.2488,0.2449,0.2449,0.2449,0.2505,0.2507,0.2508,0,0,0,0,0,0,0.2379,0.2383,0.2409,0.2398,0.2402,0.2416,0.242,0.2422,0.2435,0.2435,0.2436,0.2444,0.2442,0.2443,0.2464,0.2487,0.2449,0.245,0.2504,0.2506,0.2508,0.255,0,0,0,0,0,0,0.2378,0.2382,0.2389,0.2398,0.2403,0.2428,0.242,0.2422,0.2439,0.244,0.2447,0.2447,0.2442,0.2463,0.2464,0.2487,0.245,0.2502,0.2505,0.2507,0.2547,0.2553,0.2558,0,0,0,0,0,0.2377,0.2384,0.2389,0.2393,0.241,0.2428,0.2431,0.2439,0.244,0.245,0.2458,0.2448,0.2479,0.2464,0.2465,0.2489,0.2501,0.2504,0.2507,0.2544,0.2552,0.2558,0,0,0,0,0,0,0.2371,0.2386,0.2391,0.2403,0.242,0.243,0.2442,0.2447,0.2461,0.2465,0.2461,0.2462,0.2491,0.2485,0.2469,0.2514,0.249,0.2493,0.2518,0.2525,0.253,0.2535,0.2451,0,0,0,0,0,0.2374,0.2384,0.2399,0.2412,0.2421,0.2434,0.2444,0.2452,0.2464,0.2471,0.2476,0.2486,0.2502,0.2509,0.2519,0.2539,0.255,0.2557,0.2562,0.2567,0.2573,0.2619,0.263,0.2517,0.2517,0.2517,0,0,0.2374,0.2386,0.2391,0.2413,0.2426,0.2442,0.244,0.2462,0.2478,0.247,0.2495,0.2507,0.2513,0.254,0.2552,0.2538,0.2604,0.2571,0.2575,0.2578,0.2623,0.2634,0.2644,0.2519,0.2519,0.2519,0,0,0.2382,0.2394,0.2405,0.2422,0.2448,0.2457,0.2466,0.2486,0.2498,0.2525,0.2528,0.2555,0.2571,0.2584,0.2592,0.2635,0.2635,0.2639,0.2668,0.2714,0.2723,0.2732,0.2756,0.2766,0.2639,0.2639,0.2639,0,0.2381,0.24,0.2412,0.2431,0.245,0.2465,0.2485,0.2499,0.2524,0.2548,0.2539,0.2595,0.2593,0.2639,0.265,0.2648,0.2668,0.264,0.2721,0.273,0.2738,0.2761,0.2772,0.2641,0.2641,0.2641,0.2641,0,0.2398,0.2416,0.2428,0.2455,0.2475,0.2498,0.252,0.2548,0.2566,0.2586,0.2641,0.2649,0.2686,0.2689,0.2678,0.2739,0.2733,0.2726,0.2703,0.2752,0.2772,0.2783,0.2645,0.2644,0.2643,0.2643,0,0,0.238,0.2428,0.2433,0.245,0.2492,0.2507,0.255,0.2594,0.263,0.266,0.271,0.2739,0.2758,0.2768,0.2768,0.2795,0.2859,0.2784,0.2785,0.2806,0.2954,0.2925,0.2934,0.2872,0.2874,0.2876,0.2944,0,0.2389,0.2424,0.2452,0.2486,0.2504,0.2545,0.2582,0.2628,0.2668,0.2717,0.2752,0.2792,0.2784,0.2804,0.2838,0.2858,0.289,0.284,0.2905,0.2906,0.2874,0.2946,0.2722,0.2762,0.2954,0.2956,0.2957,0,0.2389,0.2416,0.2455,0.2505,0.2519,0.2547,0.2621,0.2656,0.2735,0.2769,0.2835,0.286,0.2918,0.2889,0.2973,0.2946,0.2957,0.2962,0.2966,0.2932,0.2898,0.2745,0.2774,0.2975,0.2973,0.2972,0.2971,0,0.2359,0.2411,0.2444,0.2463,0.2526,0.2563,0.26,0.2681,0.2723,0.2807,0.2857,0.2928,0.2975,0.3011,0.3043,0.3016,0.3121,0.3085,0.307,0.3067,0.2885,0.2862,0.3143,0.3143,0.3143,0.3143,0.3143,0,0.2351,0.2369,0.2435,0.2452,0.2496,0.2549,0.2611,0.2662,0.2749,0.2809,0.2884,0.2945,0.3012,0.3081,0.3081,0.3126,0.3167,0.3095,0.3096,0.2893,0.2871,0.3058,0.3047,0.3146,0.3145,0.3145,0.3144,0,0.2305,0.2353,0.2384,0.2458,0.2483,0.2512,0.2602,0.2643,0.2741,0.2825,0.2856,0.2983,0.3079,0.3139,0.3202,0.3187,0.3211,0.3209,0.2961,0.2933,0.3109,0.31,0.3198,0.3198,0.3198,0.3197,0.3197,0,0.2285,0.2297,0.2371,0.2393,0.2429,0.2484,0.2522,0.262,0.2668,0.2841,0.2872,0.3015,0.3087,0.3194,0.3188,0.3209,0.3241,0.3003,0.2909,0.313,0.3121,0.3112,0.3103,0.2675,0.267,0.2667,0.2664,0,0.2243,0.2274,0.2311,0.2344,0.2386,0.2423,0.2488,0.2517,0.2643,0.273,0.2841,0.2919,0.3058,0.2995,0.3055,0.3022,0.2981,0.2933,0.3243,0.2706,0.2646,0.2634,0.2641,0.2632,0.2635,0.2638,0.2639,0.2641,0.2216,0.222,0.2267,0.2289,0.2331,0.2342,0.2333,0.2409,0.2469,0.2559,0.2707,0.2758,0.2825,0.2806,0.2729,0.2674,0.2869,0.2728,0.2735,0.2746,0.2685,0.2628,0.2598,0.2601,0.2604,0.2606,0.2608,0,0.2158,0.2174,0.2198,0.2218,0.2206,0.2267,0.2292,0.2255,0.2272,0.2409,0.2487,0.2348,0.2346,0.2401,0.2285,0.2296,0.2222,0.2189,0.2069,0.2106,0.2138,0.2039,0.1784,0.1781,0.1778,0.1775,0,0,0.214,0.213,0.2131,0.209,0.2099,0.2053,0.2039,0.2011,0.2059,0.2046,0.2077,0.2277,0.2382,0.2065,0.2031,0.189,0.1971,0.1813,0.2489,0.239,0.2416,0.2482,0.2378,0,0,0,0,0]},{"header":{"parameterUnit":"m.s-1","parameterCategory":2,"la1":30.2991,"la2":30.254,"lo1":-89.0895,"lo2":-89.0444,"dx":0.0017,"dy":0.0017,"nx":28,"ny":28,"refTime":"2022-12-13T15:00:00:Z","depth":"2","parameterNumber":3,"parameterNumberName":"V-component_of_CURRENTS"},"data":[0,0,0,0,0,0,0,0,0,0,0,0,0,0,0,0,0,0,0,0,0,0,0,0,0,0,0,0,0,0,0,0,0,0,0,0,0,0,0,0,0,0,0,0,0,0,0,0,0,0,0,0,0,0,0,0,0,0,0.0117,0.0117,0,0.0084,0.0083,0.0082,0.0054,0.0054,0.0054,0.0054,-0.0015,-0.0016,-0.0018,0,0,0,0,0,0,0,0,0,0,0,0,0,0.0098,0.0099,0.0117,0.0117,0.0117,0.0084,0.0083,0.0082,0.0054,0.0054,0.0054,0.0054,-0.0014,-0.0016,-0.0018,0,0,0,0,0,0,0,0,0,0,0,0,0,0.0088,0.0099,0.0117,0.01,0.0098,0.0084,0.0083,0.0082,0.0054,0.0054,0.0054,0.0054,-0.0014,-0.0016,-0.0019,-0.0031,0,0,-0.0026,-0.0028,0,0,0,0,0,0,0,0,0.0088,0.0088,0.0103,0.0101,0.0099,0.0075,0.0051,0.0043,0.0054,0.0069,0.0054,0.0054,0.0013,0.0008,0.0,-0.0034,-0.0037,-0.0027,-0.0028,-0.0029,-0.003,0,0,0,0,0,0,0,0.0089,0.0089,0.0102,0.0103,0.0101,0.0074,0.0073,0.0049,0.0041,0.0068,0.0066,0.0066,0.0012,0.0003,-0.0002,-0.0038,-0.0027,-0.0029,-0.003,-0.0031,-0.008,-0.008,0,0,0,0,0,0,0.0101,0.009,0.0103,0.0101,0.0095,0.0075,0.0073,0.0081,0.0042,0.0036,0.0066,0.0064,0.0007,0.0001,-0.0004,-0.0002,-0.0029,-0.0032,-0.0033,-0.008,-0.008,-0.008,0,0,0,0,0,0,0.0101,0.0103,0.0104,0.0096,0.0094,0.0076,0.0085,0.0081,0.0077,0.0041,0.0034,0.0067,0.0007,-0.0,-0.0016,-0.0005,-0.0033,-0.0035,-0.008,-0.008,-0.008,-0.0009,0,0,0,0,0,0,0.01,0.0103,0.011,0.0097,0.0095,0.0106,0.0085,0.008,0.0078,0.0076,0.004,0.0033,0.0006,-0.0012,-0.0018,-0.0009,-0.0037,-0.0081,-0.008,-0.008,-0.0012,-0.0006,-0.0002,0,0,0,0,0,0.01,0.0117,0.0111,0.0113,0.0108,0.0107,0.0104,0.0088,0.0078,0.0082,0.0058,0.0034,-0.0014,-0.0013,-0.0021,-0.0013,-0.0081,-0.008,-0.008,-0.0014,-0.0007,-0.0002,0,0,0,0,0,0,0.0112,0.0115,0.0109,0.0126,0.0121,0.0103,0.0105,0.0095,0.0078,0.0075,0.0039,0.0031,0.002,-0.0007,-0.0006,-0.0027,-0.0052,-0.0053,0.0001,0.0006,0.0011,0.003,-0.0039,0,0,0,0,0,0.0119,0.0132,0.0127,0.0139,0.014,0.0123,0.012,0.0111,0.0096,0.0089,0.0066,0.0037,0.0015,0.0004,-0.0022,-0.003,-0.0059,-0.0032,-0.0027,-0.0022,-0.0014,-0.0049,-0.0047,-0.0078,-0.0078,-0.0078,0,0,0.0125,0.0129,0.0136,0.0142,0.0135,0.0147,0.0121,0.0124,0.0132,0.0084,0.0085,0.0054,0.0016,0.0006,-0.0001,-0.0013,-0.0028,-0.0022,-0.0017,-0.0011,-0.0048,-0.0045,-0.0043,-0.0077,-0.0077,-0.0077,0,0,0.0149,0.0151,0.0171,0.0173,0.0173,0.0166,0.0171,0.0161,0.0154,0.015,0.0117,0.0096,0.0064,0.004,0.0023,0.004,-0.0001,0.003,0.0071,0.0037,0.0039,0.0041,0.0013,0.0011,0.0033,0.0033,0.0033,0,0.0154,0.0184,0.0175,0.0196,0.0203,0.018,0.0203,0.0195,0.018,0.0179,0.016,0.0116,0.008,0.007,0.0074,0.0052,0.0028,0.0055,0.0045,0.0046,0.0046,0.0016,0.0014,0.0037,0.0036,0.0036,0.0036,0,0.0196,0.0218,0.023,0.0251,0.0257,0.0273,0.0265,0.0267,0.0254,0.0242,0.0229,0.0181,0.0157,0.0139,0.0111,0.0102,0.0082,0.0056,0.0034,0.0054,0.0021,0.0017,0.0042,0.004,0.0039,0.0039,0,0,0.0214,0.0253,0.0258,0.0283,0.029,0.0305,0.0317,0.0327,0.0343,0.0312,0.0324,0.0275,0.0248,0.0226,0.0185,0.0153,0.0132,0.0113,0.011,0.0093,0.0061,0.0046,0.004,0.0105,0.0104,0.0104,0.0038,0,0.0249,0.0306,0.0313,0.0364,0.0393,0.0383,0.0404,0.0406,0.0393,0.0398,0.0345,0.0335,0.0282,0.0272,0.0232,0.016,0.0125,0.0153,0.0037,0.0033,0.0024,0.0037,0.005,-0.0008,0.0034,0.0033,0.0033,0,0.0291,0.0326,0.0387,0.0435,0.0447,0.0475,0.0508,0.0523,0.0514,0.0503,0.0477,0.0431,0.0388,0.0333,0.0225,0.0246,0.0163,0.0099,0.0094,0.0055,0.0012,-0.0024,-0.0017,0.0026,0.0027,0.0027,0.0027,0,0.0323,0.0379,0.0435,0.0451,0.0499,0.0528,0.0552,0.0559,0.0587,0.0571,0.0584,0.0512,0.0492,0.0377,0.0247,0.0234,0.0123,0.0084,-0.0009,-0.0011,-0.0035,-0.0038,0.0002,0.0002,0.0002,0.0002,0.0002,0,0.0363,0.0408,0.0461,0.0496,0.057,0.0581,0.065,0.0658,0.0679,0.073,0.0649,0.0664,0.0502,0.0417,0.0279,0.0135,0.0145,0.0005,-0.0027,-0.001,-0.001,-0.0012,-0.0012,-0.0,0.0,0.0001,0.0001,0,0.0394,0.0427,0.0499,0.0565,0.0593,0.0649,0.0727,0.0772,0.0783,0.0845,0.0846,0.0781,0.0675,0.0504,0.0322,0.0193,0.0041,-0.0017,0.0019,-0.0007,-0.008,-0.0077,-0.0129,-0.013,-0.0131,-0.0132,-0.0132,0,0.0416,0.0457,0.0554,0.0607,0.0645,0.0725,0.0785,0.0824,0.0878,0.0926,0.0963,0.0882,0.0844,0.0572,0.032,0.0078,0.0044,-0.0073,-0.0103,-0.0067,-0.0093,-0.0088,-0.0083,-0.011,-0.011,-0.011,-0.0111,0,0.0461,0.0497,0.0562,0.0665,0.0745,0.0836,0.0926,0.0983,0.1044,0.1097,0.1147,0.112,0.088,0.064,0.031,0.0136,-0.0036,-0.0087,-0.0061,-0.0073,-0.0053,-0.0077,-0.0072,-0.0113,-0.0113,-0.0113,-0.0113,-0.0113,0.0497,0.0548,0.0634,0.0731,0.083,0.0941,0.1016,0.1111,0.1215,0.1305,0.1277,0.1255,0.0985,0.0567,0.0269,-0.0051,-0.004,-0.016,-0.0157,-0.0155,-0.0135,-0.0117,-0.0186,-0.0186,-0.0186,-0.0186,-0.0186,0,0.0532,0.0594,0.0688,0.0813,0.0917,0.0971,0.1109,0.118,0.1308,0.14,0.1441,0.1189,0.0926,0.0614,0.0148,-0.0129,-0.0159,-0.0227,-0.0198,-0.0193,-0.0189,-0.0171,-0.0232,-0.0232,-0.0233,-0.0234,0,0,0.0558,0.0644,0.0691,0.0864,0.0959,0.1104,0.1186,0.13,0.1389,0.1459,0.1465,0.1424,0.1049,0.0707,0.032,0.0053,-0.0008,-0.0012,0.0053,0.0138,0.0145,-0.0126,-0.0089,0,0,0,0,0]}],[{"header":{"parameterUnit":"m.s-1","parameterCategory":2,"la1":30.2991,"la2":30.254,"lo1":-89.0895,"lo2":-89.0444,"dx":0.0017,"dy":0.0017,"nx":28,"ny":28,"refTime":"2022-12-13T15:00:00:Z","depth":"4","parameterNumber":2,"parameterNumberName":"U-component_of_CURRENTS"},"data":[0,0,0,0,0,0,0,0,0,0,0,0,0,0,0,0,0,0,0,0,0,0,0,0,0,0,0,0,0,0,0,0,0,0,0,0,0,0,0,0,0,0,0,0,0,0,0,0,0,0,0,0,0,0,0,0,0,0,0.1538,0.1539,0,0.1604,0.1604,0.1605,0.1659,0.166,0.1661,0.1662,0.1738,0.174,0.1741,0,0,0,0,0,0,0,0,0,0,0,0,0,0.1429,0.1431,0.1538,0.1539,0.154,0.1604,0.1604,0.1605,0.1659,0.166,0.1661,0.1662,0.1738,0.174,0.1741,0,0,0,0,0,0,0,0,0,0,0,0,0,0.1482,0.1432,0.1538,0.1576,0.158,0.1603,0.1604,0.1605,0.1659,0.166,0.1661,0.1662,0.1738,0.1739,0.1741,0.1731,0,0,0.1748,0.1748,0,0,0,0,0,0,0,0,0.1479,0.1486,0.157,0.1574,0.1579,0.1626,0.1594,0.1649,0.1659,0.1627,0.1662,0.1663,0.1702,0.1707,0.1714,0.1735,0.1738,0.1748,0.1749,0.175,0.175,0,0,0,0,0,0,0,0.1476,0.1483,0.1562,0.1571,0.1576,0.158,0.1589,0.1604,0.1656,0.163,0.1635,0.1645,0.1705,0.1712,0.1717,0.1739,0.1748,0.175,0.1751,0.1752,0.1857,0.1859,0,0,0,0,0,0,0.1472,0.148,0.156,0.1564,0.1533,0.1581,0.1591,0.1608,0.1656,0.1665,0.1644,0.1647,0.1708,0.1714,0.172,0.1802,0.175,0.1752,0.1753,0.1856,0.1858,0.1859,0,0,0,0,0,0,0.1469,0.1479,0.1558,0.1525,0.1535,0.1582,0.1601,0.1609,0.1652,0.1667,0.1676,0.1682,0.1709,0.1717,0.1766,0.1802,0.1753,0.1755,0.1854,0.1856,0.1858,0.1907,0,0,0,0,0,0,0.1466,0.1477,0.1503,0.1525,0.1537,0.1593,0.16,0.1609,0.1654,0.166,0.1702,0.1708,0.1711,0.1763,0.1768,0.1804,0.1756,0.1852,0.1855,0.1858,0.1904,0.1911,0.1917,0,0,0,0,0,0.1462,0.1482,0.1504,0.1515,0.1567,0.1594,0.1601,0.1635,0.1656,0.1677,0.171,0.1709,0.1786,0.1766,0.1772,0.1808,0.185,0.1854,0.1857,0.1901,0.191,0.1917,0,0,0,0,0,0,0.1443,0.149,0.1515,0.1549,0.1582,0.1604,0.163,0.1653,0.1696,0.1713,0.1726,0.1735,0.1793,0.1793,0.1771,0.1848,0.1819,0.1824,0.185,0.1859,0.1865,0.1864,0.1758,0,0,0,0,0,0.1452,0.1486,0.1524,0.1555,0.1575,0.161,0.1632,0.1659,0.1691,0.1713,0.1742,0.1775,0.1805,0.1827,0.1851,0.189,0.1895,0.1918,0.1925,0.1931,0.1935,0.1979,0.199,0.1871,0.1871,0.1871,0,0,0.1451,0.1484,0.1504,0.1555,0.1584,0.1614,0.1627,0.167,0.1704,0.1712,0.1776,0.1803,0.1821,0.1869,0.1895,0.1879,0.1968,0.1936,0.194,0.1941,0.1984,0.1996,0.2006,0.1874,0.1873,0.1873,0,0,0.1453,0.15,0.1527,0.156,0.1615,0.1637,0.1657,0.1705,0.174,0.1796,0.1814,0.1864,0.1909,0.193,0.1944,0.2002,0.2004,0.2017,0.2052,0.2095,0.2105,0.2114,0.2132,0.2142,0.202,0.202,0.202,0,0.1455,0.1496,0.1537,0.157,0.1602,0.165,0.1683,0.1719,0.178,0.1817,0.1826,0.192,0.1935,0.1992,0.2013,0.2018,0.2037,0.2017,0.2104,0.2113,0.2121,0.2138,0.2148,0.2023,0.2022,0.2022,0.2022,0,0.1468,0.1514,0.1531,0.1594,0.1632,0.1669,0.1723,0.1778,0.183,0.1867,0.1954,0.1982,0.204,0.2053,0.205,0.2122,0.2115,0.2108,0.208,0.2136,0.215,0.216,0.2027,0.2026,0.2025,0.2024,0,0,0.1436,0.1525,0.1535,0.1573,0.1654,0.1681,0.1753,0.1825,0.1883,0.195,0.202,0.2077,0.2113,0.2131,0.2145,0.2177,0.2245,0.2172,0.2173,0.2185,0.2336,0.2198,0.2195,0.2262,0.2265,0.2266,0.2321,0,0.1439,0.1497,0.1547,0.161,0.1646,0.1722,0.1781,0.1858,0.1931,0.2009,0.2065,0.2133,0.2136,0.2176,0.2215,0.2243,0.2276,0.2231,0.2285,0.2286,0.2152,0.2203,0.2273,0.2328,0.233,0.2332,0.2333,0,0.1433,0.1478,0.1537,0.1633,0.1658,0.1707,0.1824,0.1885,0.2001,0.206,0.2149,0.2196,0.2273,0.2257,0.2347,0.2325,0.234,0.2347,0.235,0.2209,0.2166,0.2263,0.2351,0.235,0.2348,0.2347,0.2346,0,0.138,0.1471,0.152,0.1551,0.1661,0.1719,0.1789,0.1909,0.1972,0.2102,0.2166,0.2262,0.2325,0.2369,0.241,0.2393,0.2486,0.246,0.2347,0.2337,0.2423,0.2413,0.2516,0.2516,0.2516,0.2516,0.2516,0,0.135,0.1395,0.1505,0.1529,0.1603,0.1698,0.1791,0.1879,0.2002,0.2075,0.2194,0.2258,0.2362,0.243,0.2441,0.2428,0.2523,0.2358,0.2346,0.2441,0.2433,0.2429,0.2419,0.2518,0.2518,0.2517,0.2517,0,0.1282,0.1352,0.1415,0.1536,0.1578,0.1635,0.1779,0.1842,0.1978,0.2078,0.2124,0.2282,0.2372,0.2448,0.252,0.2457,0.2457,0.2427,0.2527,0.2519,0.2267,0.2258,0.2293,0.2289,0.2285,0.2282,0.228,0,0.1248,0.1273,0.1399,0.1439,0.15,0.1598,0.1662,0.1809,0.187,0.2071,0.21,0.2252,0.2338,0.2335,0.242,0.2435,0.2408,0.2383,0.2313,0.2261,0.2247,0.2244,0.2241,0.2274,0.2273,0.2272,0.2271,0,0.1185,0.1241,0.1292,0.1369,0.1441,0.1511,0.1616,0.1643,0.1809,0.1948,0.203,0.2091,0.2191,0.2248,0.2285,0.2287,0.2381,0.2343,0.235,0.2284,0.2238,0.2227,0.2228,0.2258,0.226,0.2261,0.2262,0,0.1141,0.1158,0.1229,0.1288,0.1365,0.1401,0.1472,0.1548,0.1625,0.1836,0.1857,0.2026,0.2167,0.2173,0.2203,0.2203,0.2162,0.2073,0.2093,0.2108,0.2022,0.1934,0.1856,0,0,0,0,0,0.109,0.11,0.1144,0.1195,0.1262,0.1315,0.1426,0.15,0.165,0.1658,0.1752,0.1836,0.191,0.1996,0.1958,0.2116,0.2165,0.2061,0.207,0.2188,0.2202,0.2119,0,0,0,0,0,0,0.1059,0.1097,0.1108,0.1099,0.112,0.1186,0.1256,0.1365,0.1375,0.1539,0.1592,0.1718,0.1819,0.1917,0.1924,0.1946,0.1911,0.2162,0.2156,0.2179,0.2193,0.2205,0.2124,0,0,0,0,0]},{"header":{"parameterUnit":"m.s-1","parameterCategory":2,"la1":30.2991,"la2":30.254,"lo1":-89.0895,"lo2":-89.0444,"dx":0.0017,"dy":0.0017,"nx":28,"ny":28,"refTime":"2022-12-13T15:00:00:Z","depth":"4","parameterNumber":3,"parameterNumberName":"V-component_of_CURRENTS"},"data":[0,0,0,0,0,0,0,0,0,0,0,0,0,0,0,0,0,0,0,0,0,0,0,0,0,0,0,0,0,0,0,0,0,0,0,0,0,0,0,0,0,0,0,0,0,0,0,0,0,0,0,0,0,0,0,0,0,0,0.0043,0.0043,0,0.002,0.0019,0.0019,-0.0001,-0.0002,-0.0002,-0.0002,-0.0056,-0.0057,-0.0059,0,0,0,0,0,0,0,0,0,0,0,0,0,0.003,0.0031,0.0043,0.0043,0.0042,0.002,0.0019,0.0019,-0.0001,-0.0002,-0.0002,-0.0002,-0.0056,-0.0057,-0.0059,0,0,0,0,0,0,0,0,0,0,0,0,0,0.0023,0.0031,0.0043,0.003,0.0029,0.002,0.0019,0.0019,-0.0001,-0.0002,-0.0002,-0.0002,-0.0055,-0.0057,-0.0059,-0.0068,0,0,-0.0065,-0.0066,0,0,0,0,0,0,0,0,0.0024,0.0024,0.0032,0.0031,0.003,0.0013,-0.0005,-0.0011,-0.0001,0.0009,-0.0002,-0.0002,-0.0035,-0.0039,-0.0044,-0.007,-0.0072,-0.0065,-0.0066,-0.0067,-0.0068,0,0,0,0,0,0,0,0.0024,0.0024,0.0032,0.0032,0.0031,0.0013,0.0012,-0.0006,-0.0013,0.0008,0.0007,0.0006,-0.0036,-0.0042,-0.0045,-0.0073,-0.0065,-0.0067,-0.0068,-0.0069,-0.0109,-0.0109,0,0,0,0,0,0,0.0032,0.0025,0.0033,0.0032,0.0028,0.0013,0.0012,0.0018,-0.0012,-0.0016,0.0006,0.0005,-0.0038,-0.0043,-0.0047,-0.0047,-0.0067,-0.0069,-0.007,-0.0109,-0.0109,-0.0109,0,0,0,0,0,0,0.0032,0.0033,0.0034,0.0028,0.0027,0.0014,0.002,0.0017,0.0014,-0.0013,-0.0018,0.0007,-0.0039,-0.0045,-0.0058,-0.005,-0.007,-0.0072,-0.0109,-0.0109,-0.0109,-0.0054,0,0,0,0,0,0,0.0032,0.0033,0.0038,0.0029,0.0028,0.0035,0.002,0.0017,0.0014,0.0013,-0.0015,-0.002,-0.0039,-0.0054,-0.0059,-0.0053,-0.0073,-0.0109,-0.0109,-0.0109,-0.0056,-0.0052,-0.0049,0,0,0,0,0,0.0032,0.0041,0.0039,0.004,0.0036,0.0036,0.0034,0.0022,0.0015,0.0017,-0.0001,-0.0019,-0.0057,-0.0056,-0.0062,-0.0056,-0.0109,-0.0109,-0.0109,-0.0058,-0.0053,-0.0049,0,0,0,0,0,0,0.0035,0.004,0.0037,0.0047,0.0044,0.0033,0.0033,0.0026,0.0014,0.0011,-0.0016,-0.0022,-0.0032,-0.0052,-0.005,-0.0068,-0.0087,-0.0088,-0.0046,-0.0042,-0.0038,-0.0025,-0.0075,0,0,0,0,0,0.004,0.0049,0.0048,0.0055,0.0056,0.0045,0.0043,0.0037,0.0026,0.0021,0.0003,-0.0019,-0.0036,-0.0045,-0.0064,-0.0071,-0.0096,-0.0073,-0.0069,-0.0066,-0.006,-0.009,-0.0088,-0.0108,-0.0108,-0.0108,0,0,0.0042,0.0046,0.005,0.0056,0.0052,0.0063,0.0044,0.0045,0.0052,0.0016,0.0017,-0.0006,-0.0036,-0.0043,-0.0049,-0.0058,-0.0073,-0.0065,-0.0062,-0.0058,-0.009,-0.0088,-0.0086,-0.0107,-0.0107,-0.0108,0,0,0.0055,0.0057,0.0071,0.0074,0.0076,0.0073,0.0077,0.0071,0.0067,0.0064,0.004,0.0023,-0.0001,-0.0019,-0.0032,-0.0021,-0.0053,-0.0028,0.0003,-0.0026,-0.0024,-0.0023,-0.005,-0.0052,-0.0025,-0.0025,-0.0025,0,0.0056,0.0077,0.0073,0.0088,0.0096,0.0082,0.01,0.0096,0.0086,0.0086,0.0072,0.0038,0.001,0.0003,0.0006,-0.0011,-0.0032,-0.0009,-0.002,-0.002,-0.002,-0.0047,-0.005,-0.0022,-0.0023,-0.0023,-0.0023,0,0.0082,0.0098,0.0106,0.0126,0.0132,0.0144,0.0143,0.0147,0.0139,0.0133,0.0123,0.0086,0.0068,0.0054,0.0033,0.0024,0.0007,-0.0012,-0.0028,-0.0014,-0.0044,-0.0048,-0.0019,-0.002,-0.002,-0.0021,0,0,0.0088,0.012,0.0123,0.0145,0.0155,0.0168,0.0181,0.0192,0.0206,0.0184,0.0194,0.0157,0.0137,0.012,0.0089,0.0062,0.004,0.0031,0.0028,0.0011,-0.0022,-0.0033,-0.0038,0.002,0.002,0.002,-0.0042,0,0.0111,0.0152,0.016,0.0201,0.0225,0.0224,0.0243,0.0249,0.0242,0.0247,0.0209,0.0202,0.0163,0.0155,0.0123,0.0062,0.0033,0.0059,-0.0038,-0.0041,-0.0047,-0.0042,0.0019,-0.0045,-0.0046,-0.0046,-0.0047,0,0.0137,0.0164,0.0208,0.0253,0.0263,0.0286,0.0318,0.0333,0.033,0.0323,0.0306,0.0274,0.0239,0.0198,0.0108,0.0128,0.0061,0.0008,0.0004,-0.0027,-0.0059,-0.0064,-0.0054,-0.0054,-0.0053,-0.0053,-0.0052,0,0.0155,0.0201,0.0241,0.0255,0.0298,0.0321,0.0346,0.0357,0.0379,0.0373,0.0381,0.033,0.031,0.0222,0.0116,0.0112,0.001,-0.0013,-0.0087,-0.0089,-0.0084,-0.0085,-0.0081,-0.0081,-0.0081,-0.0081,-0.0081,0,0.018,0.0215,0.0257,0.0282,0.0339,0.0357,0.041,0.0423,0.0442,0.0475,0.0427,0.0429,0.0315,0.0243,0.0137,0.0019,0.0024,-0.0079,-0.0105,-0.006,-0.0058,-0.0087,-0.0087,-0.0083,-0.0083,-0.0082,-0.0082,0,0.0195,0.022,0.0274,0.0328,0.0352,0.0394,0.0462,0.0497,0.051,0.0549,0.0551,0.0504,0.0414,0.0289,0.0144,0.0054,-0.0067,-0.0113,-0.0049,-0.0071,-0.0152,-0.0148,-0.0198,-0.0199,-0.0199,-0.02,-0.02,0,0.0207,0.0235,0.0308,0.0346,0.0375,0.0441,0.0489,0.0529,0.0565,0.0594,0.0612,0.0547,0.0497,0.0298,0.0153,-0.0047,-0.0082,-0.0148,-0.0157,-0.0143,-0.0163,-0.0158,-0.0154,-0.0202,-0.0202,-0.0202,-0.0202,0,0.0228,0.0252,0.0296,0.0373,0.0434,0.0505,0.0574,0.0607,0.0656,0.0667,0.0668,0.0572,0.0471,0.0308,0.0153,0.0005,-0.0106,-0.0156,-0.0156,-0.0166,-0.0148,-0.0167,-0.0161,-0.0205,-0.0204,-0.0204,-0.0204,0,0.0241,0.0271,0.0329,0.0399,0.0476,0.055,0.0588,0.064,0.0681,0.0709,0.0707,0.0604,0.0546,0.0334,0.0191,0.0047,0.0002,-0.0055,-0.0061,-0.006,-0.0009,0.0034,0.0016,0,0,0,0,0,0.0251,0.0287,0.0351,0.0431,0.0507,0.0557,0.0637,0.0668,0.0714,0.0723,0.0719,0.0627,0.0434,0.0351,0.0205,0.0153,-0.004,-0.0026,-0.0113,-0.0219,-0.0216,-0.0181,0,0,0,0,0,0,0.0257,0.0313,0.0347,0.0446,0.0504,0.0595,0.065,0.0683,0.0687,0.071,0.0612,0.0578,0.0386,0.0519,0.02,0.0157,0.0077,-0.0113,-0.0116,-0.0221,-0.0218,-0.0216,-0.0179,0,0,0,0,0]}]]